Regional Weather Roundup
Issued by NWS State College, PA

Home | Current Version | Previous Version | Graphics & Text | Print | Product List | Glossary Off
Versions: 1 2 3 4 5 6 7 8 9 10 11 12 13 14 15 16 17 18 19 20 21 22 23 24 25 26 27 28 29 30 31 32 33 34 35 36 37 38 39 40 41 42 43 44 45 46 47 48 49 50

000
ASUS41 KCTP 270003
RWRCTP

REGIONAL WEATHER ROUNDUP
NATIONAL WEATHER SERVICE STATE COLLEGE PA
700 PM EST FRI DEC 26 2014

Note: "fair" indicates few or no clouds below 12,000 feet with no
significant weather and/or obstructions to visibility.

* = STATION THAT DOES NOT REPORT PRECIPITATION /E.G. RAIN...SNOW...ETC/
    THUNDER OR FOG.

PAZ002>004-007>009-013>016-020>023-029>032-270100-
WESTERN PENNSYLVANIA

CITY           SKY/WX    TMP DP  RH WIND       PRES   REMARKS
ERIE           PTCLDY    44  31  60 S10       30.16R
MEADVILLE      MOCLDY    42  31  64 S7        30.16R
FRANKLIN*      MOCLDY    39  28  65 S10       30.20R
NEW CASTLE       N/A     44  32  63 CALM      30.21R
BEAVER COUNTY  NOT AVBL
BUTLER*        PTCLDY    43  28  56 S5        30.23R
PITTSBURGH INT PTCLDY    42  31  64 S5        30.21R
PITTSBURGH     PTCLDY    43  27  53 S8        30.21R
INDIANA*       CLEAR     36  30  80 CALM      30.25R
LATROBE        PTCLDY    41  32  70 SW6       30.24S
WASHINGTON CO* NOT AVBL
$$

PAZ004>006-010>012-017>019-024>028-033>037-041-042-045-046-049>053-270100-
CENTRAL PENNSYLVANIA

CITY           SKY/WX    TMP DP  RH WIND       PRES   REMARKS
BRADFORD       PTCLDY    38  28  67 S3        30.16R
DUBOIS         PTCLDY    39  29  67 S3        30.17S
CLEARFIELD     PTCLDY    37  28  70 CALM      30.20R
JOHNSTOWN      CLEAR     40  25  55 SW10      30.19R
ALTOONA        CLEAR     38  30  73 SW7       30.21R
STATE COLLEGE  CLEAR     41  28  60 W5        30.21R
WILLIAMSPORT   CLEAR     35  28  75 CALM      30.22R
SELINSGROVE    CLEAR     33  29  85 CALM      30.24R
FT INDIANTOWN  CLEAR     36  31  80 NE1       30.25R
CAPITAL CITY   CLEAR     37  30  75 CALM      30.25R
HARRISBURG     PTCLDY    33  28  81 CALM      30.25R
YORK           CLEAR     32  28  85 CALM      30.25R
$$

PAZ038>040-043-044-047-048-054-055-060>062-067>071-270100-
EASTERN PENNSYLVANIA

CITY           SKY/WX    TMP DP  RH WIND       PRES   REMARKS
SCRANTON       CLEAR     39  27  62 CALM      30.20R
MOUNT POCONO   CLEAR     32  25  75 W5        30.16S
ALLENTOWN      CLEAR     36  28  73 SW7       30.24R
QUAKERTOWN*    NOT AVBL
READING        CLEAR     39  29  67 CALM      30.24R
LANCASTER      CLEAR     35  28  75 CALM      30.25R
COATESVILLE    CLEAR     41  32  70 CALM      30.25S
POTTSTOWN      CLEAR     37  29  72 CALM      30.26R
BLUE BELL      CLEAR     37  32  81 CALM      30.24R
DOYLESTOWN     CLEAR     39  31  72 SW5       30.23R
WILLOW GROVE   NOT AVBL
NORTH PHILA    CLEAR     44  29  55 SW3       30.27R
PHILADELPHIA   MOCLDY    43  31  62 SW9       30.27R
$$


USA.gov is the U.S. government's official web portal to all federal, state and local government web resources and services.